Skip Page Navigation
NASA JPL Caltech
NASA Logo - Jet Propulsion Laboratory + View the NASA Portal
+ Center for Near-Earth Object Studies
JPL Home Earth Solar System Stars & Galaxies Technology
JPL Solar System Dynamics
BODIES ORBITS EPHEMERIDES TOOLS PHYSICAL DATA DISCOVERY FAQ SITE MAP
IMPORTANT: The SSD Announcement email list is now available. Major changes are coming in the near future, including possible hostname and/or URL changes. To be notified of such changes, subscribe to this email list.

Please visit this page for more details.


JPL Small-Body Database Browser
Search: [ help ]  
136011 (2002 VB64)
Classification: Main-belt Asteroid          SPK-ID: 2136011
Ephemeris | Orbit Diagram | Orbital Elements | Mission Design | Physical Parameters | Discovery Circumstances | Close-Approach Data ]

[ show orbit diagram ]
Orbital Elements at Epoch 2458600.5 (2019-Apr-27.0) TDB
Reference: JPL 17 (heliocentric ecliptic J2000)
 Element Value Uncertainty (1-sigma)   Units 
e .1780752502695171 5.0266e-08  
a 2.692039236587719 1.8533e-08 au
q 2.212653675797001 1.4283e-07 au
i 13.55246206291618 5.625e-06 deg
node 250.414795515106 2.1447e-05 deg
peri 95.54762099875397 2.9655e-05 deg
M 308.0037292378923 1.6686e-05 deg
tp 2458833.518391956121
(2019-Dec-16.01839196)
7.4907e-05 TDB
period 1613.319953040477
4.42
1.666e-05
4.561e-08
d
yr
n .2231423465144287 2.3043e-09 deg/d
Q 3.171424797378438 2.1834e-08 au
  Orbit Determination Parameters
   # obs. used (total)      585  
   data-arc span      6677 days (18.28 yr)  
   first obs. used      2001-05-24  
   last obs. used      2019-09-04  
   planetary ephem.      DE431  
   SB-pert. ephem.      SB431-N16  
   condition code      0  
   norm. resid. RMS      .48367  
   source      ORB  
   producer      Otto Matic  
   solution date      2019-Sep-24 03:27:44  

Additional Information
 Earth MOID = 1.25492 au 
 Jupiter MOID = 2.39649 au 
 T_jup = 3.309 
[ show covariance matrix ]

Ephemeris | Orbit Diagram | Orbital Elements | Mission Design | Physical Parameters | Discovery Circumstances | Close-Approach Data ]

Physical Parameter Table
Parameter Symbol Value Units Sigma Reference Notes
absolute magnitude H 15.2   n/a MPO439841  

136011 (2002 VB64)          Discovered 2002-Nov-06 by LONEOS at Anderson Mesa
Reference: 20060907/Numbers.arcLast Updated: 2006-09-10

[ show close-approach data ]
Alternate Designations
 2002 VB64 = 2001 MC4 
Ephemeris | Orbit Diagram | Orbital Elements | Mission Design | Physical Parameters | Discovery Circumstances | Close-Approach Data ]
ABOUT SSD CREDITS/AWARDS PRIVACY/COPYRIGHT GLOSSARY LINKS
FirstGov
(server date/time)  
NASA Home Page
Site Manager:   Ryan S. Park
Webmaster  Alan B. Chamberlin